CZ-4C R/B, 40879

Orbit data source: Space-Track

CZ-4C R/B, 40879 is space debris in SSO originally from a launch on Thu, 27 Aug 2015 UTC launched from the Taiyaun Space Center, China (TSC). Debris objects in space refer to the collection of defunct objects orbiting the Earth. Examples of debris include non-operational satellites, rocket bodies, and fragments generated from explosions, collisions, or faulty payload assembly.

Loading next visibility...
Identifier
40879, 2015-040B
Orbit
SSO
Country
Flag of CNCN / PRC
Related business
Manufacturer
SAST
Mission
Spacecraft
Bus & Motor
CZ-4 STAGE 3, Unknown motor
Mass
~1,000 kg wet, ~1,000 kg dry
Launch date (UTC)
2015-08-27 (11 years ago)
Launch vehicle
Unknown
Launch site
Taiyaun Space Center, China (TSC)
Object type
Payload
Rocket body
Debris
Shape & HBR
Cyl, 2.5 m
Radar Cross Section
14.536 m², Large (>1 m²)

Expand to show TLE details & history
Last TLE update: 2 days ago

TLE from 2 days ago
0 CZ-4C R/B
1 40879U 15040B   26171.41053899 -.00000037  00000-0  20350-4 0  9999
2 40879 100.5661 338.8289 0093869  80.2919 280.8790 13.33326782526391
Epoch: 2026-06-20T09:51Z
TLE epoch observation values (Epoch: 2026-06-20T09:51:10.568Z)
Latitude
-0.00006°
Longitude
-77.59068°
Altitude
1,124.302 km
Speed
7.297 km/s
True Right ascension
22h 35m 18s
True Declination
0° 00' 00"
Sunlit
Object was in daylight at epoch
Visualization orbit readout
Latitude
Unknown
Longitude
Unknown
Altitude
Unknown
Speed
Unknown
Apparent Right ascension
Unknown
Apparent Declination
Unknown
Sunlit
N/A
Visualization observer readout
Local Sidereal Time
23:19:45
Azimuth
Unknown
Elevation
Unknown
Doppler factor
Unknown
Orbital elements
Apogee altitude
1,202.104 km
Perigee altitude
1,061.117 km
Semi-major axis
7,509.748 km
Eccentricity
0.00939
Inclination
100.5661°
RAAN
338.8289°
Arg. of periapsis
80.2919°
True anomaly
279.82039°
Mean anomaly
280.879°
Eccentric anomaly
280.34992°
Mean motion
3.33507 °/min
Orbital period
107.94 mins
BSTAR
0.00002035
Loading maneuver chart data...
Computing Atmospheric mass density...
Loading historical data...
Loading historical data...
Loading historical data...
Loading historical data...
Loading historical data...
Loading historical data...
Loading historical data...
Other satellites on launch #40 in the year 2015 (2015-08-27 UTC)

Documentation

Showing up to 5 results
|